Weather Roundup
Issued by NWS

Home | Current Version | Previous Version | Text Only | Print | Product List | Glossary On
Versions: 1 2 3 4 5 6 7 8 9 10 11 12 13 14 15 16 17 18 19 20 21 22 23 24 25 26 27 28 29 30 31 32 33 34 35 36 37 38 39 40 41 42 43 44 45 46 47 48 49 50
000
NZUS93 KARX 312210
HRRWXR

CURRENT HOURLY OBSERVATIONS ACROSS
MUCH OF THE UPPER MISSISSIPPI VALLEY
NATIONAL WEATHER SERVICE LA CROSSE WI
500 PM CDT SUN AUG 31 2014


...SOUTHEAST MINNESOTA...


CITY           SKY/WX    TMP DP  RH WIND       PRES   REMARKS
ROCHESTER      MOSUNNY   82  70  66 S14G23    29.77R
ROCHESTER/MAYO MOCLDY    83  67  58 S13       29.75S
WINONA         MOSUNNY   86  70  58 S5        29.74S HX  90
AUSTIN         PTSUNNY   81  72  74 S10       29.75F
ALBERT LEA     CLOUDY    82  66  57 S9G17     29.74S
DODGE CENTER   PTSUNNY   82  72  69 S14       29.74S
PRESTON        MOSUNNY   83  74  75 S9        29.78S
OWATONNA       CLOUDY    82  70  65 S10G16    29.72F
FARIBAULT      CLOUDY    84  66  54 S8        29.71S
$$

...ELSEWHERE IN MINNESOTA...


CITY           SKY/WX    TMP DP  RH WIND       PRES   REMARKS
MINNEAPOLIS    CLOUDY    82  67  60 S12       29.68S
INTNL FALLS    CLOUDY    69  62  78 SE10      29.58F
DULUTH         CLOUDY    68  62  81 E6        29.68S
RED WING       PTSUNNY   84  70  61 S8        29.69F
REDWOOD FALLS  MOSUNNY   83  68  60 S13       29.66S
MANKATO        CLOUDY    79  66  65 S20G30    29.70F
WORTHINGTON    MOSUNNY   77  66  69 SW12      29.73F
FAIRMONT       CLOUDY    77  63  61 S10       29.71F
$$

...SOUTHWEST WISCONSIN...


CITY           SKY/WX    TMP DP  RH WIND       PRES   REMARKS
LA CROSSE      MOSUNNY   86  68  54 S17       29.75F
PRAIRIE DU CHI SUNNY     86  64  48 SE7G16    29.79F
BOSCOBEL       SUNNY     88  66  48 S8G17     29.81S HX  90
LONE ROCK      SUNNY     88  69  53 S12       29.83S HX  92
PLATTEVILLE    SUNNY     84  65  53 S13       29.86F
FORT MC COY    MOSUNNY   83  65  54 SE7       29.79F
CAMP DOUGLAS   PTSUNNY   84  70  61 SE13      29.81F
VIROQUA        FAIR      83  67  57 S13       29.82S
WIS DELLS      SUNNY     85  63  48 S12       29.84F
$$

...ELSEWHERE IN WISCONSIN...


CITY           SKY/WX    TMP DP  RH WIND       PRES   REMARKS
MILWAUKEE      MOSUNNY   78  68  71 SE13      29.89F
MADISON        MOSUNNY   84  65  52 S15       29.85F
GREEN BAY      MOSUNNY   75  68  78 SE10      29.87S
EAU CLAIRE     MOSUNNY   82  70  66 S17       29.73F
BLACK RVR FLS  FAIR      83  68  60 S3        29.78S
MEDFORD        MOSUNNY   75  67  76 SE10G17   29.82F
WAUSAU         MOSUNNY   77  62  59 SE13      29.82S
WIS RAPIDS     MOSUNNY   83  67  58 S7        29.83F
MARSHFIELD     MOSUNNY   80  68  66 S10       29.82S
RICE LAKE      MOSUNNY   79  68  68 SE16      29.73F
$$

...NORTHEAST IOWA...


CITY           SKY/WX    TMP DP  RH WIND       PRES   REMARKS
WATERLOO       PTSUNNY   84  71  65 S14       29.78S
DUBUQUE        SUNNY     82  67  60 S15       29.84F
DECORAH        MOSUNNY   82  70  65 S8        29.79R
MASON CITY     CLOUDY    81  69  67 S16G26    29.78S
CHARLES CITY   PTSUNNY   82  72  69 S13G21    29.79S
OELWEIN        PTSUNNY   84  73  70 S13G22    29.81S HX  91
$$

...ELSEWHERE IN IOWA...


CITY           SKY/WX    TMP DP  RH WIND       PRES   REMARKS
DES MOINES     PTSUNNY   85  73  67 S10       29.76F HX  91
IOWA CITY      MOSUNNY   85  72  65 S14G22    29.83F HX  91
FORT DODGE     CLOUDY    70  64  83 SE3       29.76F
MARSHALLTOWN   CLOUDY    82  73  74 SW3       29.79S
CEDAR RAPIDS   MOSUNNY   85  73  67 S14G22    29.81F HX  91
$$

...NORTHERN ILLINOIS...


CITY           SKY/WX    TMP DP  RH WIND       PRES   REMARKS
CHICAGO-OHARE  MOSUNNY   84  62  47 SW6       29.89F
DUPAGE         MOSUNNY   85  68  56 S8        29.90R
CHICAGO-MIDWAY MOSUNNY   86  65  49 SW12      29.89F
MOLINE         SUNNY     87  68  52 S8        29.86S HX  90
ROCKFORD       MOSUNNY   83  67  58 S10       29.90S
STERLING       SUNNY     86  70  58 S6        29.88S HX  90
PEORIA         MOSUNNY   86  71  60 S9        29.89F HX  91
$$

NOTE: "FAIR" INDICATES FEW OR NO CLOUDS BELOW 12,000 FEET WITH NO
SIGNIFICANT WEATHER AND/OR OBSTRUCTIONS TO VISIBILITY. WIND
SPEEDS ARE IN MILES-PER-HOUR.



USA.gov is the U.S. government's official web portal to all federal, state and local government web resources and services.